www.pogodaiklimat.ru

Погода и климат >> Архив погоды >> Нигер >> Ниамей


ПОГОДА в Ниамее

  • Прогноз погоды в Ниамее
  • Монитор погоды в Ниамее

АРХИВ ПОГОДЫ в Ниамее

Время (UTC), дата Ветер
(напр.,м/с)
 
Видим.   Явления Облачность Т
(С)
Тd
(С)
f
(%)
Тe
(С)
Тes
(С)
Комфортность P
(гПа)
Po
(гПа)
Тmin
(С)
Tmax
(С)
R
(мм)
R24
(мм)
S
(см)
09 13.04 ЮЗ 4 8000 м пыль 9/0
[Ac cast Ci sp]
+34.6 +6.6 18 +33 +36 жарко 1009.4 985.1
12 13.04 СЗ 8 10 км 9/0
[Ac cast Ci sp]
+39.0 +5.4 13 +36 +38 очень
жарко
1007.2 983.1
15 13.04 З 10 10 км 9/0
[Ac cast Ci sp]
+39.4 -0.2 8 +36 +36 очень
жарко
1005.3 981.2
18 13.04 З 6 10 км 9/0
[Ac cast Ci sp]
+38.0 +3.7 12 +35 +35 очень
жарко
1006.1 981.9 +39.7
21 13.04 С 4 8000 м 9/0
[Ac cast Ci sp]
+34.5 +5.2 16 +32 +32 жарко 1007.4 983.2
00 14.04 СЗ 4 10 км 9/0
[Ac cast Ci sp]
+31.0 +7.0 22 +30 +30 жарко 1007.1 982.9
03 14.04 С 6 10 км 6/0
[Ac cast Ci sp]
+29.0 +7.8 26 +28 +28 жарко 1006.4 982.1
06 14.04 З 2 8000 м пыль 9/0
[Ac cast Ci sp]
+28.5 +3.9 21 +27 +27 жарко 1008.0 983.6 +27.9
09 14.04 Ю 4 6000 м пыль 9/0
[Ac cast Ci sp]
+36.0 -8.0 6 +32 +37 жарко 1005.4 985.0
12 14.04 С 10 6000 м пыль 9/0
[Ac cast Ci sp]
+39.0 -4.4 6 +35 +35 очень
жарко
1008.5 984.3
15 14.04 С 6 10 км 9/0
[Ac cast Ci sp]
+40.5 -2.0 7 +36 +39 очень
жарко
1006.3 982.1
18 14.04 С 4 12 км 9/0
[Ac cast Ci sp]
+39.0 +0.6 9 +35 +35 очень
жарко
1006.7 982.4 +41.0
21 14.04 штиль 0 10 км 8/0
[Ac cast Ci sp]
+34.0 +4.0 15 +31 +31 жарко 1007.9 983.0
00 15.04 С 4 10 км 6/0
[Ac cast Ci sp]
+29.4 +2.4 18 +27 +27 жарко 1007.3 983.0
03 15.04 С 4 10 км 6/0
[Ac cast Ci sp]
+28.0 +1.8 18 +26 +26 жарко 1006.5 982.2
06 15.04 С 6 10 км 6/0
[Ac cast Ci sp]
+25.0 +3.0 24 +24 +24 комфорт 1008.4 984.0 +24.0
09 15.04 СВ 14 12 км 6/0
[Ac cast Ci sp]
+35.0 -10.0 5 +30 +30 жарко 1010.8 986.5
12 15.04 В 8 12 км 6/0
[Ac cast Ci sp]
+40.0 -8.2 4 +35 +39 очень
жарко
1009.3 986.0
15 15.04 В 6 10 км 9/0
[Ac cast Ci sp]
+41.0 -5.3 5 +37 +39 очень
жарко
1006.3 982.1
18 15.04 С 6 6000 м пыль 9/0
[Ac cast Ci sp]
+39.8 -1.8 7 +36 +36 очень
жарко
1007.2 982.8 +42.0
21 15.04 СВ 4 8000 м пыль 6/0
[Ac cast Ci sp]
+35.5 -0.3 10 +32 +32 жарко 1001.3 984.3
00 16.04 С 6 8000 м пыль 6/0
[Ac trans Ci sp]
+32.0 -1.0 12 +29 +29 жарко 1008.4 984.2
03 16.04 СВ 6 8000 м пыль 8/0
[Ac cast Ci sp]
+30.0 -1.7 13 +27 +27 жарко 1007.3 983.1
06 16.04 СВ 8 6000 м пыль 8/0
[Ac trans Ci sp]
+28.5 -2.3 13 +26 +26 жарко 1009.1 984.8 +28.5
09 16.04 В 16 2000 м пыльный позёмок 9/0
[Cs]
+35.4 +0.7 11 +32 +32 жарко 1011.0 986.7
12 16.04 ЮВ 10 2000 м пыль 9/0
[Cs]
+40.2 +2.2 10 +37 +38 очень
жарко
1009.1 984.9
15 16.04 ЮВ 8 2500 м пыль 9/0
[Cs]
+41.6 -0.1 8 +38 +40 очень
жарко
1006.2 982.0
18 16.04 В 8 2000 м пыль 9/0
[Cs]
+39.6 -0.4 8 +36 +36 очень
жарко
1006.6 982.3 +42.0
21 16.04 ЮВ 4 2500 м пыль 9/0
[Cs]
+36.4 +2.1 12 +33 +33 жарко 1007.7 983.6
00 17.04 В 6 2500 м пыль 9/0
[Ac cast Cs]
+34.4 +1.0 12 +31 +31 жарко 1007.5 983.5
03 17.04 ЮВ 4 2500 м пыль 9/0
[Cs]
+32.6 +3.8 16 +30 +30 жарко 1006.1 982.1
06 17.04 СВ 4 3500 м пыль 9/0
[Cs]
+30.2 +2.8 17 +28 +28 жарко 1007.6 983.4 +30.0
09 17.04 ЮВ 6 2000 м пыль 9/0
[Cs]
+36.0 +1.0 11 +32 +36 жарко 1010.2 986.0
12 17.04 ЮВ 10 2500 м пыль 9/0
[Cs]
+39.6 +2.2 10 +36 +37 очень
жарко
1008.4 984.3
15 17.04 С 6 2000 м пыль 9/0
[Cs]
+41.0 +1.8 9 +37 +41 очень
жарко
1004.0 980.7
18 17.04 С 8 2000 м пыль 9/0
[Cs]
+39.0 +0.4 9 +35 +35 очень
жарко
1005.2 981.0 +42.4
21 17.04 СВ 4 3000 м пыль 9/0
[Cs]
+35.6 +2.5 13 +32 +32 жарко 1007.8 983.6
00 18.04 штиль 0 3000 м пыль 9/0
[Cs]
+32.8 +3.5 16 +30 +30 жарко 1007.7 983.5
03 18.04 СВ 4 3000 м пыль 9/0
[Cs]
+30.2 +6.2 22 +29 +29 жарко 1006.2 982.0
06 18.04 штиль 0 3000 м пыль 9/0
[Cs]
+29.0 +4.5 21 +27 +28 жарко 1007.6 983.3 +28.2
09 18.04 В 16 2500 м пыльный позёмок 6/0
[Ci sp]
+36.4 -8.0 6 +32 +32 жарко 1009.2 985.0
12 18.04 ЮВ 12 8000 м пыль 6/0
[Ci sp]
+40.0 -8.0 5 +36 +36 очень
жарко
1007.4 983.3
15 18.04 ЮВ 6 6000 м пыль 6/0
[Ci sp]
+42.0 -5.1 5 +38 +41 очень
жарко
1004.6 980.5
18 18.04 В 8 6000 м пыль 6/0
[Ci sp]
+39.6 +1.3 9 +36 +36 очень
жарко
1005.0 980.8 +42.5
21 18.04 В 4 8000 м пыль 6/0
[Ci sp]
+35.4 -0.7 10 +32 +32 жарко 1006.6 982.5
00 19.04 В 4 8000 м пыль 6/0
[Ci sp]
+32.5 +0.9 13 +29 +29 жарко 1006.6 982.5
03 19.04 штиль 0 8000 м пыль 6/0
[Ci sp]
+29.5 +6.4 23 +28 +28 жарко 1005.2 981.1
06 19.04 штиль 0 3500 м пыль 9/0
[Cs]
+27.5 +3.8 22 +26 +26 жарко 1007.1 982.8 +27.0
09 19.04 Ю 8 4000 м пыль 9/0
[Cs]
+34.6 -1.0 10 +31 +33 жарко 1009.5 985.2
12 19.04 Ю 10 6000 м пыль 9/0
[Cs]
+39.4 +10.2 17 +38 +39 очень
жарко
1007.9 983.8
15 19.04 ЮВ 4 6000 м пыль 9/0
[Cs]
+42.0 +2.4 9 +39 +45 очень
жарко
1005.3 981.2
18 19.04 Ю 2 6000 м пыль 9/0
[Cs]
+40.0 +4.8 12 +37 +37 очень
жарко
1005.7 981.5 +42.5
21 19.04 В 4 6000 м пыль 9/0
[Cs]
+35.0 -1.0 10 +31 +31 жарко 1007.7 983.5
00 20.04 В 4 8000 м пыль 6/0
[Ci sp]
+33.2 -8.3 6 +29 +29 жарко 1006.3 982.9
03 20.04 В 4 8000 м пыль 6/0
[Ci sp]
+30.6 +3.0 17 +28 +28 жарко 1005.9 981.8
06 20.04 ЮВ 8 6000 м пыль 6/0
[Ci sp]
+29.0 0.0 15 +26 +26 жарко 1007.9 983.6 +28.2

 

Местоположение метеостанции Ниамей (Нигер): широта 13.48 долгота 2.17 высота над уровнем моря 227 м.

В архиве по умолчанию представлена погода в Ниамее за последнюю неделю. Архивные данные за месяц целиком и за предыдущие месяцы, начиная с января 2011 года, Вы можете получить, выбрав интересующий диапазон дат из раскрывающегося списка и нажав кнопку "Ввод!".


*Определитесь, кто Вы:
робот инопланетянин человек

Внимание! Время в таблицах - всемирное. Для получения местного времени необходимо прибавить поправку, которая равна 1 ч.

Смотрите также архив погоды в соседних городах и на ближайших метеорологических станциях:

Погода в Тиллабери (Нигер) (112 км)
Погода в Досо (Нигер) (123 км)
Погода в Гае (Нигер) (226 км)
Погода в Дори (Буркина-Фасо) (245 км)
Погода в Фада-Нгурме (Буркина-Фасо) (253 км)
Погода в Канди (Бенин) (274 км)
Погода в Вирнин-Конни (Нигер) (335 км)
Погода в Дапаоне (Того) (351 км)
Погода в Натитингу (Бенин) (362 км)
Погода в Тахве (Нигер) (368 км)

Пояснения к столбцам:

Ветер - указаны скорость ветра в м/с - средняя за 10 мин, порывы в срок и между сроками (в фигурных скобках) и направление, откуда дует ветер: С - северный, СВ - северо-восточный, В - восточный, ЮВ - юго-восточный, Ю - южный, ЮЗ - юго-западный, З - западный, СЗ - северо-западный.
Видимость - горизонтальная дальность видимости в метрах или километрах. При видимости от 1 до 10 км при отсутствии осадков обычно наблюдается дымка, при ухудшении видимости до 1 км и менее - туман. В сухую погоду видимость может ухудшаться дымом, пылью или мглою.
Явления - указаны атмосферные явления, наблюдавшиеся в срок или в последний час перед сроком; фигурными скобками обозначены явления, наблюдавшиеся между сроками (за 1-3 часа до срока); квадратными скобками обозначены град или гололедные отложения с указанием их диаметра в мм.
Облачность - указаны через наклонную черту общая и нижняя облачность в баллах и высота нижней границы облаков в метрах; квадратными скобками обозначены формы облаков: Ci - перистые, Cs - перисто-слоистые, Cc - перисто-кучевые, Ac - высококучевые, As - высокослоистые, Sc - слоисто-кучевые, Ns - слоисто-дождевые, Cu - кучевые, Cb - кучево-дождевые. Подробнее классификацию облаков см. в Атласе облаков (PDF).
T - Температура воздуха - температура, измеренная на высоте 2 м над землей.
Td - Температура точки росы - температура, при понижении до которой содержащийся в воздухе водяной пар достигнет насыщения.
f - Относительная влажность воздуха - влажноcть воздуха, измеренная на высоте 2 м над землей.
Te - Эффективная температура - температура, которую ощущает одетый по сезону человек в тени. Характеристика душности погоды. При расчете учитывается влияние влажности воздуха и скорости ветра на теплоощущения человека.
Tes - Эффективная температура на солнце - температура, которую ощущает человек, с поправкой на солнечный нагрев. Характеристика знойности погоды. Зависит от высоты солнца над горизонтом, облачности и скорости ветра. Ночью, в пасмурную погоду, а также при ветре 12 м/с и более поправка равна нулю.
P - Атмосферное давление - приведенное к уровню моря атмосферное давление.
Po - Атмосферное давление - измеренное на уровне метеостанции атмосферное давление.
Tmin - Минимальная температура - минимум температуры воздуха на высоте 2 м над землей.
Tmax - Максимальная температура - максимум температуры воздуха на высоте 2 м над землей.
R - Количество осадков - Количество выпавших осадков за период времени, мм. При наведении курсора мыши на число - период времени, за который выпало указанное количество осадков.
R24 - Количество осадков - Количество выпавших осадков за 24 часа, мм.
S - Снежный покров - Высота снежного покрова, см. При наведении курсора мыши на число - состояние снежного покрова и степень покрытия местности в баллах.